Cairns, Australia

7:17 PM AEST on February 21, 2017 (GMT +1000)
Cairns International

Weather History for YBCS - March, 2013

Change the Weather History Date:

Monday, March 11, 2013

  Actual Average Record
Temperature  
Mean Temperature 80 °F -  
Max Temperature 87 °F 86 °F 89 °F (2002)
Min Temperature 73 °F 72 °F 69 °F (1997)
Cooling Degree Days 15    
Growing Degree Days 30 (Base 50)    
Moisture  
Dew Point 70 °F    
Average Humidity 74    
Maximum Humidity 95    
Minimum Humidity 47    
Precipitation  
Precipitation 0.31 in 0.48 in - ()
Sea Level Pressure  
Sea Level Pressure 29.78 in    
Wind  
Wind Speed 12 mph ()    
Max Wind Speed 23 mph    
Max Gust Speed 30 mph    
Visibility 6.3 miles    
Events Rain    
Averages and records for this station are not official NWS values.
T = Trace of Precipitation, MM = Missing Value Source: Averaged Metar Reports

Daily Weather History Graph

Daily Weather History Graph

Search for Another Location

Airport or City:

Trip Planner

Search our weather history database for the weather conditions in past years. The results will help you decide how hot, cold, wet, or windy it might be!

Date:

Astronomy

Mar. 11, 2013 Rise Set
Actual Time 6:19 AM AEST 6:34 PM AEST
Civil Twilight 5:57 AM AEST 6:56 PM AEST
Nautical Twilight 5:32 AM AEST 7:21 PM AEST
Astronomical Twilight 5:06 AM AEST 7:47 PM AEST
Moon 5:27 AM AEST (3/11) 5:58 PM AEST (3/11)
Length of Visible Light 12h 59m
Length of Day
12h 15m
Waning Crescent, 1% of the Moon is Illuminated
Mar 11
Waning Crescent
Mar 12
New
Mar 20
First Quarter
Mar 27
Full
Apr 3
Last Quarter

Hourly Weather History & Observations

Time (AEST) Temp. Heat Index Dew Point Humidity Pressure Visibility Wind Dir Wind Speed Gust Speed Precip Events Conditions
12:00 AM 78 °F - 69 °F 66% 29.81 in - South 10.4 mph - -  
12:00 AM 77.0 °F - 68.0 °F 74% 29.80 in 6.2 mi South 10.4 mph - N/A   Partly Cloudy
12:30 AM 77.0 °F - 69.8 °F 78% 29.80 in 6.2 mi SSE 9.2 mph - N/A   Scattered Clouds
1:00 AM 78 °F - 68 °F 64% 29.80 in - South 11.5 mph - -  
1:00 AM 78.8 °F - 68.0 °F 69% 29.80 in 6.2 mi South 11.5 mph - N/A   Scattered Clouds
1:30 AM 77.0 °F - 69.8 °F 78% 29.77 in 6.2 mi South 10.4 mph - N/A   Scattered Clouds
2:00 AM 77.0 °F - 69.8 °F 78% 29.77 in 6.2 mi SE 8.1 mph - N/A   Scattered Clouds
2:30 AM 78.8 °F - 69.8 °F 74% 29.77 in 6.2 mi South 9.2 mph - N/A   Scattered Clouds
3:00 AM 77 °F - 70 °F 73% 29.77 in - SSE 8.1 mph - -  
3:00 AM 77.0 °F - 69.8 °F 78% 29.77 in 6.2 mi SSE 8.1 mph - N/A   Scattered Clouds
3:30 AM 77.0 °F - 69.8 °F 78% 29.77 in 6.2 mi South 9.2 mph - N/A   Scattered Clouds
4:00 AM 78 °F - 70 °F 69% 29.77 in - South 10.4 mph - -  
4:00 AM 77.0 °F - 69.8 °F 78% 29.77 in 6.2 mi South 10.4 mph - N/A   Partly Cloudy
4:30 AM 77.0 °F - 69.8 °F 78% 29.74 in 6.2 mi South 10.4 mph - N/A   Partly Cloudy
5:00 AM 77.0 °F - 69.8 °F 78% 29.74 in 6.2 mi South 11.5 mph - N/A   Partly Cloudy
5:30 AM 77.0 °F - 69.8 °F 78% 29.77 in 6.2 mi South 11.5 mph - N/A   Partly Cloudy
6:00 AM 77 °F - 69 °F 70% 29.77 in 19 mi South 11.5 mph - -   Partly Cloudy
6:00 AM 77.0 °F - 69.8 °F 78% 29.77 in 6.2 mi South 11.5 mph - N/A   Partly Cloudy
6:30 AM 77.0 °F - 68.0 °F 74% 29.77 in 6.2 mi South 10.4 mph - N/A   Partly Cloudy
7:00 AM 78 °F - 68 °F 65% 29.79 in - South 12.7 mph - -  
7:00 AM 77.0 °F - 68.0 °F 74% 29.77 in 6.2 mi South 12.7 mph - N/A   Partly Cloudy
7:30 AM 78.8 °F - 68.0 °F 69% 29.77 in 6.2 mi South 12.7 mph - N/A   Partly Cloudy
8:00 AM 80.6 °F 83.9 °F 69.8 °F 70% 29.80 in 6.2 mi SSE 13.8 mph - N/A   Partly Cloudy
8:30 AM 82.4 °F 86.3 °F 69.8 °F 66% 29.80 in 6.2 mi South 13.8 mph - N/A   Partly Cloudy
9:00 AM 82 °F - 70 °F 58% 29.82 in 19 mi SSE 16.1 mph - -   Partly Cloudy
9:00 AM 82.4 °F 86.3 °F 69.8 °F 66% 29.80 in 6.2 mi SSE 16.1 mph - N/A   Partly Cloudy
9:30 AM 84.2 °F 88.4 °F 69.8 °F 62% 29.80 in 6.2 mi SSE 15.0 mph - N/A   Partly Cloudy
10:00 AM 86 °F - 69 °F 49% 29.83 in - SE 15.0 mph - -  
10:00 AM 86.0 °F 90.4 °F 69.8 °F 58% 29.80 in 6.2 mi SE 15.0 mph - N/A   Partly Cloudy
10:30 AM 86.0 °F 90.4 °F 69.8 °F 58% 29.80 in 6.2 mi SE 19.6 mph - N/A   Partly Cloudy
11:00 AM 86.0 °F 90.4 °F 69.8 °F 58% 29.80 in 6.2 mi SE 21.9 mph - N/A   Partly Cloudy
11:30 AM 87.8 °F 91.4 °F 68.0 °F 52% 29.80 in 6.2 mi SSE 20.7 mph - N/A   Partly Cloudy
12:00 PM 87 °F - 70 °F 47% 29.79 in 19 mi SE 20.7 mph - -   Scattered Clouds
12:00 PM 87.8 °F 92.6 °F 69.8 °F 55% 29.77 in 6.2 mi SE 20.7 mph - N/A   Partly Cloudy
12:30 PM 86.0 °F 90.4 °F 69.8 °F 58% 29.77 in 6.2 mi SE 21.9 mph - N/A   Scattered Clouds
1:00 PM 87 °F - 71 °F 50% 29.77 in - SE 19.6 mph - -  
1:00 PM 86.0 °F 91.8 °F 71.6 °F 62% 29.74 in 6.2 mi SE 19.6 mph - N/A   Scattered Clouds
1:30 PM 80.6 °F 84.6 °F 71.6 °F 74% 29.74 in 6.2 mi SE 21.9 mph - N/A Rain Light Rain Showers
1:38 PM 82.4 °F 88.2 °F 73.4 °F 74% 29.74 in 6.2 mi SSE 17.3 mph 29.9 mph N/A   Mostly Cloudy
2:00 PM 84.2 °F 88.4 °F 69.8 °F 62% 29.74 in 6.2 mi SE 19.6 mph - N/A   Mostly Cloudy
2:30 PM 86.0 °F 90.4 °F 69.8 °F 58% 29.74 in 6.2 mi SE 21.9 mph - N/A   Mostly Cloudy
3:00 PM 84 °F - 71 °F 57% 29.74 in 12 mi SE 23.0 mph - -   Partly Cloudy
3:00 PM 84.2 °F 89.6 °F 71.6 °F 66% 29.74 in 6.2 mi SE 23.0 mph - N/A   Scattered Clouds
3:30 PM 84.2 °F 88.4 °F 69.8 °F 62% 29.71 in 6.2 mi SE 21.9 mph - N/A   Mostly Cloudy
4:00 PM 81 °F - 72 °F 67% 29.75 in - SE 17.3 mph - -  
4:00 PM 80.6 °F 84.6 °F 71.6 °F 74% 29.74 in 6.2 mi SE 17.3 mph - N/A   Mostly Cloudy
4:30 PM 80.6 °F 83.9 °F 69.8 °F 70% 29.74 in 6.2 mi SSE 19.6 mph - N/A   Mostly Cloudy
5:00 PM 78.8 °F - 71.6 °F 78% 29.74 in 6.2 mi South 10.4 mph - N/A   Mostly Cloudy
5:15 PM 78.8 °F - 71.6 °F 78% 29.74 in 2.5 mi South 11.5 mph - N/A Rain Rain Showers
5:30 PM 75.2 °F - 73.4 °F 94% 29.77 in 3.1 mi SSE 13.8 mph - N/A Rain Light Rain Showers
6:00 PM 75 °F - 74 °F 94% 29.77 in 2 mi South 9.2 mph - - Rain Light Rain Showers
6:00 PM 75.2 °F - 73.4 °F 94% 29.77 in 1.9 mi South 9.2 mph - N/A   Mostly Cloudy
6:30 PM 75.2 °F - 73.4 °F 94% 29.77 in 3.7 mi SSE 12.7 mph - N/A   Mostly Cloudy
7:00 PM 74 °F - 72 °F 91% 29.81 in - South 9.2 mph - -  
7:00 PM 75.2 °F - 71.6 °F 89% 29.80 in 5.0 mi South 9.2 mph - N/A   Mostly Cloudy
7:30 PM 75.2 °F - 69.8 °F 83% 29.80 in 5.6 mi SSW 6.9 mph - N/A   Mostly Cloudy
7:55 PM 75.2 °F - 73.4 °F 94% 29.80 in 3.7 mi ESE 6.9 mph - N/A Rain Light Rain Showers
8:00 PM 75.2 °F - 73.4 °F 94% 29.80 in 3.1 mi ESE 9.2 mph - N/A Rain Light Rain Showers
8:30 PM 73.4 °F - 71.6 °F 94% 29.80 in 3.7 mi SSE 6.9 mph - N/A Rain Light Rain Showers
9:00 PM 73 °F - 72 °F 95% 29.83 in 3 mi South 6.9 mph - - Rain Light Rain Showers
9:00 PM 73.4 °F - 71.6 °F 94% 29.83 in 3.1 mi South 8.1 mph - N/A Rain Light Rain Showers
9:30 PM 75.2 °F - 69.8 °F 83% 29.83 in 5.0 mi SW 4.6 mph - N/A   Mostly Cloudy
10:00 PM 74 °F - 71 °F 87% 29.84 in - South 10.4 mph - -  
10:00 PM 73.4 °F - 71.6 °F 94% 29.83 in 5.0 mi South 10.4 mph - N/A   Mostly Cloudy
10:30 PM 75.2 °F - 69.8 °F 83% 29.83 in 6.2 mi South 10.4 mph - N/A   Mostly Cloudy
11:00 PM 75.2 °F - 69.8 °F 83% 29.83 in 6.2 mi South 13.8 mph - N/A   Mostly Cloudy
11:30 PM 75.2 °F - 69.8 °F 83% 29.83 in 6.2 mi South 11.5 mph - N/A   Mostly Cloudy